San Angelo, TX

9:48 AM CDT on May 27, 2018 (GMT -0500)
San Angelo Regional-Mathis

Weather History for KSJT - February, 2014

Change the Weather History Date:

Saturday, February 15, 2014

  Actual Average Record
Temperature  
Mean Temperature 58 °F 50 °F  
Max Temperature 82 °F 63 °F 87 °F (2000)
Min Temperature 34 °F 37 °F 16 °F (1909)
Degree Days  
Heating Degree Days 7 15  
Month to date heating degree days 329 243  
Since 1 July heating degree days 2017 1787  
Cooling Degree Days 0 0  
Month to date cooling degree days 0 0  
Year to date cooling degree days 0 1  
Growing Degree Days 8 (Base 50)    
Moisture  
Dew Point 29 °F    
Average Humidity 40    
Maximum Humidity 64    
Minimum Humidity 15    
Precipitation  
Precipitation 0.00 in 0.05 in 0.74 in (1989)
Month to date precipitation 0.06 0.68  
Year to date precipitation 0.06 1.61  
Snow  
Snow 0.00 in 0.00 in 0.00 in ()
Month to date snowfall 0.1 0.2  
Since 1 July snowfall 1.6 2.0  
Snow Depth 0.00 in    
Sea Level Pressure  
Sea Level Pressure 30.02 in    
Wind  
Wind Speed 10 mph (South)    
Max Wind Speed 26 mph    
Max Gust Speed 32 mph    
Visibility 10 miles    
Events      
T = Trace of Precipitation, MM = Missing Value Source: NWS Daily Summary

Daily Weather History Graph

Daily Weather History Graph

Search for Another Location

Airport or City:

Astronomy

Feb. 15, 2014 Rise Set
Actual Time 7:23 AM CST 6:29 PM CST
Civil Twilight 6:58 AM CST 6:54 PM CST
Nautical Twilight 6:30 AM CST 7:22 PM CST
Astronomical Twilight 6:01 AM CST 7:50 PM CST
Moon 7:23 PM CST (2/15) 7:28 AM CST (2/15)
Length of Visible Light 11h 55m
Length of Day
11h 05m
Waxing Gibbous, 99% of the Moon is Illuminated
Feb 15
Waxing Gibbous
Feb 22
Last Quarter
Mar 1
New
Mar 8
First Quarter
Mar 16
Full

Hourly Weather History & Observations

Time (CST) Temp. Windchill Dew Point Humidity Pressure Visibility Wind Dir Wind Speed Gust Speed Precip Events Conditions
12:51 AM 41.0 °F - 24.1 °F 51% 30.09 in 10.0 mi Calm Calm - N/A   Clear
1:51 AM 37.0 °F - 24.1 °F 59% 30.08 in 10.0 mi Calm Calm - N/A   Clear
2:51 AM 37.0 °F - 24.1 °F 59% 30.08 in 10.0 mi Calm Calm - N/A   Clear
3:51 AM 36.0 °F 32.1 °F 25.0 °F 64% 30.08 in 10.0 mi SSW 4.6 mph - N/A   Clear
4:51 AM 36.0 °F 30.3 °F 24.1 °F 62% 30.08 in 10.0 mi SSW 6.9 mph - N/A   Clear
5:51 AM 36.0 °F 32.1 °F 24.1 °F 62% 30.09 in 10.0 mi South 4.6 mph - N/A   Clear
6:51 AM 37.0 °F 33.3 °F 25.0 °F 62% 30.10 in 10.0 mi SE 4.6 mph - N/A   Clear
7:51 AM 37.0 °F - 26.1 °F 65% 30.11 in 10.0 mi Calm Calm - N/A   Clear
8:51 AM 46.9 °F - 28.0 °F 48% 30.12 in 10.0 mi ESE 5.8 mph - N/A   Clear
9:51 AM 54.0 °F - 28.9 °F 38% 30.11 in 10.0 mi SSE 9.2 mph - N/A   Clear
10:51 AM 64.0 °F - 27.0 °F 25% 30.08 in 10.0 mi South 17.3 mph 31.1 mph N/A   Clear
11:51 AM 70.0 °F - 28.0 °F 21% 30.04 in 10.0 mi SSW 26.5 mph 29.9 mph N/A   Clear
12:51 PM 73.9 °F - 30.0 °F 20% 30.01 in 10.0 mi SSW 21.9 mph 27.6 mph N/A   Clear
1:51 PM 78.1 °F - 30.9 °F 18% 29.97 in 10.0 mi SSW 18.4 mph 28.8 mph N/A   Clear
2:51 PM 81.0 °F - 30.9 °F 16% 29.94 in 10.0 mi SSW 13.8 mph - N/A   Clear
3:51 PM 82.0 °F - 30.9 °F 16% 29.92 in 10.0 mi SW 16.1 mph - N/A   Clear
4:51 PM 81.0 °F - 30.9 °F 16% 29.92 in 10.0 mi SSW 13.8 mph - N/A   Clear
5:51 PM 78.1 °F - 32.0 °F 19% 29.92 in 10.0 mi South 11.5 mph - N/A   Clear
6:51 PM 72.0 °F - 32.0 °F 23% 29.94 in 10.0 mi South 12.7 mph - N/A   Clear
7:51 PM 68.0 °F - 33.1 °F 27% 29.96 in 10.0 mi South 11.5 mph - N/A   Clear
8:51 PM 64.9 °F - 34.0 °F 32% 29.97 in 10.0 mi South 11.5 mph - N/A   Clear
9:51 PM 61.0 °F - 34.0 °F 36% 29.96 in 10.0 mi SSW 8.1 mph - N/A   Clear
10:51 PM 57.9 °F - 35.1 °F 42% 29.96 in 10.0 mi South 8.1 mph - N/A   Clear
11:51 PM 59.0 °F - 36.0 °F 42% 29.96 in 10.0 mi South 11.5 mph - N/A   Clear